Weather History for Antigo, WI

Change the Weather History Date:

Saturday, September 21, 2013

  Actual Average Record
Temperature  
Mean Temperature 45 °F -  
Max Temperature 55 °F 63 °F 82 °F (2005)
Min Temperature 35 °F 42 °F 26 °F (1999)
Degree Days  
Heating Degree Days 20    
Moisture  
Dew Point 41 °F    
Average Humidity 85    
Maximum Humidity 100    
Minimum Humidity 57    
Precipitation  
Precipitation 0.00 in - - ()
Sea Level Pressure  
Sea Level Pressure 29.89 in    
Wind  
Wind Speed 7 mph (NW)    
Max Wind Speed 18 mph    
Max Gust Speed 25 mph    
Visibility 10 miles    
Events      
Averages and records for this station are not official NWS values.
T = Trace of Precipitation, MM = Missing Value Source: NWS Daily Summary

Daily Weather History Graph

Daily Weather History Graph

Search for Another Location

Airport:

Trip Planner

Search our weather history database for the weather conditions in past years. The results will help you decide how hot, cold, wet, or windy it might be!

Date:

Astronomy

Sep. 21, 2013 Rise Set
Actual Time 6:42 AM CDT 6:55 PM CDT
Civil Twilight 6:13 AM CDT 7:24 PM CDT
Nautical Twilight 5:38 AM CDT 7:59 PM CDT
Astronomical Twilight 5:03 AM CDT 8:34 PM CDT
Moon 7:56 PM CDT (9/21) 9:09 AM CDT (9/21)
Length of Visible Light 13h 11m
Length of Day
12h 12m
Waning Gibbous, 94% of the Moon is Illuminated
Sep 21
Waning Gibbous
Sep 26
Last Quarter
Oct 4
New
Oct 11
First Quarter
Oct 18
Full

Hourly Weather History & Observations

Time (CDT) Temp. Windchill Dew Point Humidity Pressure Visibility Wind Dir Wind Speed Gust Speed Precip Events Conditions
12:15 AM 48.2 °F - 45.9 °F 92% 29.83 in 10.0 mi WNW 5.8 mph - N/A   Clear
12:35 AM 47.5 °F - 45.5 °F 93% 29.83 in 10.0 mi WNW 5.8 mph - N/A   Clear
12:55 AM 46.9 °F - 45.5 °F 95% 29.83 in 10.0 mi WNW 5.8 mph - N/A   Clear
1:15 AM 46.0 °F 43.1 °F 44.8 °F 95% 29.83 in 10.0 mi WNW 5.8 mph - N/A   Clear
1:35 AM 45.7 °F 42.7 °F 44.6 °F 96% 29.83 in 10.0 mi WNW 5.8 mph - N/A   Clear
1:55 AM 45.5 °F 42.5 °F 44.2 °F 95% 29.83 in 10.0 mi WNW 5.8 mph - N/A   Clear
2:15 AM 44.8 °F 41.0 °F 43.7 °F 96% 29.83 in 10.0 mi WNW 6.9 mph - N/A   Clear
2:35 AM 44.6 °F 40.7 °F 43.7 °F 97% 29.83 in 10.0 mi WNW 6.9 mph - N/A   Clear
2:55 AM 44.6 °F 40.7 °F 43.7 °F 97% 29.83 in 10.0 mi WNW 6.9 mph - N/A   Clear
3:15 AM 44.1 °F 40.1 °F 43.2 °F 97% 29.83 in 10.0 mi WNW 6.9 mph - N/A   Clear
3:35 AM 43.7 °F 39.7 °F 42.8 °F 97% 29.83 in 10.0 mi WNW 6.9 mph - N/A   Clear
3:55 AM 43.7 °F 39.7 °F 42.8 °F 97% 29.83 in 10.0 mi WNW 6.9 mph - N/A   Clear
4:15 AM 43.2 °F 39.7 °F 42.6 °F 98% 29.84 in 10.0 mi WNW 5.8 mph - N/A   Clear
4:35 AM 43.0 °F 40.3 °F 42.6 °F 99% 29.84 in 10.0 mi WNW 4.6 mph - N/A   Clear
4:55 AM 42.8 °F 39.3 °F 42.1 °F 97% 29.84 in 10.0 mi WNW 5.8 mph - N/A   Clear
5:15 AM 42.4 °F 39.6 °F 42.1 °F 99% 29.84 in 10.0 mi WNW 4.6 mph - N/A   Mostly Cloudy
5:35 AM 42.1 °F 39.2 °F 41.9 °F 99% 29.84 in 10.0 mi WNW 4.6 mph - N/A   Scattered Clouds
5:55 AM 42.4 °F 38.8 °F 42.1 °F 99% 29.85 in 10.0 mi WNW 5.8 mph - N/A   Mostly Cloudy
6:15 AM 43.2 °F 40.5 °F 42.8 °F 99% 29.85 in 10.0 mi WNW 4.6 mph - N/A   Overcast
6:35 AM 42.8 °F 38.6 °F 42.3 °F 98% 29.86 in 10.0 mi WNW 6.9 mph - N/A   Scattered Clouds
6:55 AM 43.9 °F 40.5 °F 42.8 °F 96% 29.86 in 10.0 mi WNW 5.8 mph - N/A   Scattered Clouds
7:15 AM 44.6 °F 41.4 °F 43.5 °F 96% 29.86 in 10.0 mi WNW 5.8 mph - N/A   Overcast
7:35 AM 45.3 °F 41.6 °F 43.9 °F 95% 29.86 in 10.0 mi WNW 6.9 mph - N/A   Scattered Clouds
7:55 AM 46.4 °F 41.1 °F 45.0 °F 95% 29.86 in 10.0 mi WNW 11.5 mph - N/A   Mostly Cloudy
8:15 AM 47.5 °F - 45.0 °F 91% 29.86 in 10.0 mi NW 11.5 mph - N/A   Mostly Cloudy
8:35 AM 47.8 °F - 44.8 °F 89% 29.87 in 10.0 mi WNW 12.7 mph - N/A   Mostly Cloudy
8:55 AM 47.5 °F - 44.1 °F 88% 29.87 in 10.0 mi NW 9.2 mph 16.1 mph N/A   Overcast
9:15 AM 49.1 °F - 45.0 °F 86% 29.87 in 10.0 mi NW 15.0 mph 18.4 mph N/A   Overcast
9:35 AM 47.8 °F - 43.9 °F 86% 29.88 in 10.0 mi NW 18.4 mph 23.0 mph N/A   Overcast
9:55 AM 48.2 °F - 43.9 °F 85% 29.88 in 10.0 mi North 17.3 mph 21.9 mph N/A   Overcast
10:15 AM 46.8 °F - 43.5 °F 88% 29.88 in 4.0 mi North 16.1 mph 25.3 mph N/A   Overcast
10:35 AM 48.4 °F - 42.6 °F 80% 29.88 in 10.0 mi NNW 17.3 mph 21.9 mph N/A   Overcast
10:55 AM 48.6 °F - 42.8 °F 80% 29.89 in 10.0 mi NNW 11.5 mph - N/A   Overcast
11:15 AM 48.0 °F - 40.5 °F 75% 29.90 in 10.0 mi NNW 12.7 mph 21.9 mph N/A   Overcast
11:35 AM 48.2 °F - 41.2 °F 77% 29.90 in 10.0 mi NNW 10.4 mph - N/A   Overcast
11:55 AM 47.7 °F - 41.0 °F 78% 29.90 in 10.0 mi NW 10.4 mph 17.3 mph N/A   Overcast
12:15 PM 49.1 °F - 40.1 °F 71% 29.90 in 10.0 mi NNW 13.8 mph 17.3 mph N/A   Overcast
12:35 PM 50.4 °F - 40.3 °F 68% 29.91 in 10.0 mi NW 10.4 mph 18.4 mph N/A   Overcast
12:55 PM 52.2 °F - 41.0 °F 66% 29.91 in 10.0 mi NW 12.7 mph 16.1 mph N/A   Overcast
1:15 PM 50.2 °F - 40.8 °F 70% 29.91 in 10.0 mi NNW 10.4 mph 17.3 mph N/A   Overcast
1:35 PM 50.5 °F - 41.0 °F 70% 29.91 in 10.0 mi NNW 9.2 mph - N/A   Overcast
1:55 PM 51.8 °F - 39.7 °F 63% 29.90 in 10.0 mi NW 13.8 mph 19.6 mph N/A   Overcast
2:15 PM 51.1 °F - 38.8 °F 63% 29.90 in 10.0 mi NW 10.4 mph - N/A   Mostly Cloudy
2:35 PM 54.1 °F - 40.5 °F 60% 29.91 in 10.0 mi NNW 9.2 mph - N/A   Overcast
2:55 PM 52.3 °F - 39.9 °F 63% 29.90 in 10.0 mi NW 10.4 mph - N/A   Overcast
3:15 PM 55.0 °F - 40.1 °F 57% 29.90 in 10.0 mi NW 10.4 mph - N/A   Mostly Cloudy
3:35 PM 54.9 °F - 39.9 °F 57% 29.90 in 10.0 mi NNW 12.7 mph 16.1 mph N/A   Overcast
3:55 PM 55.6 °F - 40.8 °F 58% 29.90 in 10.0 mi NW 5.8 mph - N/A   Mostly Cloudy
4:15 PM 53.8 °F - 40.6 °F 61% 29.90 in 10.0 mi NNW 10.4 mph - N/A   Mostly Cloudy
4:35 PM 54.3 °F - 41.5 °F 62% 29.90 in 10.0 mi North 8.1 mph - N/A   Mostly Cloudy
4:55 PM 53.6 °F - 41.0 °F 62% 29.90 in 10.0 mi North 9.2 mph - N/A   Mostly Cloudy
5:15 PM 53.6 °F - 41.4 °F 63% 29.90 in 10.0 mi North 8.1 mph - N/A   Scattered Clouds
5:35 PM 52.3 °F - 41.4 °F 66% 29.90 in 10.0 mi NNE 9.2 mph - N/A   Clear
5:55 PM 52.0 °F - 41.5 °F 68% 29.91 in 10.0 mi NNE 8.1 mph - N/A   Clear
6:15 PM 50.0 °F - 41.2 °F 72% 29.91 in 10.0 mi NNE 6.9 mph - N/A   Clear
6:35 PM 48.7 °F - 41.2 °F 75% 29.91 in 10.0 mi NNE 5.8 mph - N/A   Clear
6:55 PM 46.8 °F - 41.0 °F 80% 29.92 in 10.0 mi NNE 5.8 mph - N/A   Clear
7:15 PM 45.7 °F 42.7 °F 40.1 °F 81% 29.92 in 10.0 mi NNE 5.8 mph - N/A   Clear
7:35 PM 44.4 °F 41.2 °F 39.9 °F 84% 29.93 in 10.0 mi NNE 5.8 mph - N/A   Clear
7:55 PM 43.0 °F 39.5 °F 39.6 °F 88% 29.94 in 10.0 mi NNE 5.8 mph - N/A   Clear
8:15 PM 42.1 °F 39.2 °F 39.2 °F 90% 29.95 in 10.0 mi NNE 4.6 mph - N/A   Clear
8:35 PM 41.7 °F 39.8 °F 38.8 °F 89% 29.95 in 10.0 mi NNE 3.5 mph - N/A   Clear
8:55 PM 41.2 °F 39.2 °F 38.7 °F 91% 29.95 in 10.0 mi NNE 3.5 mph - N/A   Clear
9:15 PM 39.7 °F 37.6 °F 38.1 °F 94% 29.96 in 10.0 mi NNE 3.5 mph - N/A   Clear
9:35 PM 39.6 °F - 37.9 °F 94% 29.97 in 10.0 mi Calm Calm - N/A   Clear
9:55 PM 39.6 °F - 38.3 °F 95% 29.97 in 10.0 mi Calm Calm - N/A   Clear
10:15 PM 38.5 °F - 37.4 °F 96% 29.97 in 10.0 mi Calm Calm - N/A   Clear
10:35 PM 37.0 °F - 36.5 °F 98% 29.98 in 10.0 mi Calm Calm - N/A   Clear
10:55 PM 37.6 °F - 37.0 °F 98% 29.98 in 10.0 mi Calm Calm - N/A   Clear
11:15 PM 35.4 °F - 35.1 °F 99% 29.99 in 10.0 mi Calm Calm - N/A   Clear
11:35 PM 36.5 °F - 36.5 °F 100% 29.99 in 10.0 mi Calm Calm - N/A   Clear
11:55 PM 35.6 °F - 35.4 °F 99% 29.99 in 10.0 mi Calm Calm - N/A   Clear